sat.trackr.live / text

‹ back to catalog

STARLINK-33845

NORAD 63495 · 2025-071C

PAYLOAD ACTIVE UNKNOWN

§ Identity

Operator
Country
US
Launch date
2025-04-07
Launch site
AFWTR
Launch vehicle
Mass (kg)
RCS (m²)

Purposes: comms

External: N2YO · Heavens-Above · Gunter

§ Orbital elements

Epoch: 2026-09-20T10:39:08.363520Z

Period
93.85 min
Inclination
53.1619°
Eccentricity
0.0003507
Mean motion
15.34397462 rev/d
Perigee alt
460.3 km
Apogee alt
465.1 km
Semi-major
6,840.8 km
B*
5.7254e-4
RAAN
314.1808°
Arg perigee
36.0615°
Mean anomaly
324.0624°
Rev number
8,258

§ Raw data

STARLINK-338451 63495U 25071C   26263.44384680  .00019017  00000+0  57254-3 0  99912 63495  53.1619 314.1808 0003507  36.0615 324.0624 15.34397462 82583

JSON: /api/v1/satellites/63495 · /tle

For live sub-satellite position, see the globe view (requires WebGL).

§ Visibility from observer

Set your observer location to see the next 7 days of passes ≥ 10°. The values pass through the URL so the page stays shareable.

No JS? Fill the form by hand. The geolocation button needs JavaScript.